Temperature
8 8 8 8 9 9 8 8 9 9 10 10 9 9 9 11 11 11 13 14 15 15 16 16 16 16 16 16 17 17 17 17 17 17 17 17 16 16 16 16 16 16 15 15
8 8 9 9 9 9 9 8 9 9 9 9 8 8 9 9 10 11 12 13 13 14 15 15 15 15 16 16 16 16 16 16 16 17 17 17 17 17 17 17 16 16 16 15
8 8 9 9 9 9 9 8 9 9 8 7 7 8 9 9 9 10 11 11 12 13 14 15 15 15 15 16 16 16 16 16 16 16 16 16 16 16 16 16 16 16 16 16
8 8 9 9 9 9 8 9 9 9 8 6 7 7 8 8 8 9 9 10 11 12 13 14 14 15 15 15 15 15 16 16 16 16 16 16 16 15 16 16 16 16 16 16
7 8 8 8 8 9 8 8 8 7 7 6 6 7 8 7 9 9 8 9 10 11 12 13 13 14 14 14 15 15 15 15 15 15 15 15 15 15 15 15 15 16 16 16
8 8 8 8 8 9 8 7 6 5 5 6 6 5 7 7 9 8 8 9 10 11 12 12 13 13 13 14 14 14 15 15 15 15 15 15 15 15 15 15 15 15 15 15
7 8 8 8 7 8 7 7 6 6 5 5 5 5 6 7 8 7 8 9 10 11 11 12 12 12 12 13 13 13 14 14 14 14 14 15 15 15 15 15 15 15 15 15
6 6 7 8 7 7 7 7 6 6 6 5 5 4 6 7 8 8 9 9 10 10 11 11 11 11 11 12 12 12 13 13 13 14 14 14 14 14 14 14 14 14 14 14
6 6 7 8 7 7 6 5 6 4 4 4 5 5 5 8 8 8 8 9 10 10 10 10 10 10 10 10 11 11 11 12 12 13 13 13 13 13 13 13 13 13 13 14
6 6 7 8 8 7 6 5 4 4 5 6 6 6 6 8 9 8 7 8 9 9 9 9 9 9 9 9 9 10 10 10 11 11 12 12 13 13 13 13 13 12 12 12
6 5 6 7 7 6 6 5 4 3 4 5 6 8 7 7 8 7 7 8 8 8 8 8 8 8 8 8 8 9 9 9 10 10 11 11 12 12 12 12 11 11 11 11
6 5 5 6 6 6 6 5 4 4 3 3 3 6 8 7 7 7 8 8 8 7 7 7 7 7 7 7 7 8 8 9 9 9 10 10 10 10 10 10 10 10 9 9
6 5 4 5 5 6 6 5 5 4 3 2 3 6 7 6 7 8 8 8 7 7 6 6 6 6 6 6 6 7 7 7 8 8 9 9 9 9 9 9 9 9 8 8
6 5 4 5 5 4 5 5 4 4 3 2 3 4 6 7 7 7 7 7 6 5 5 4 4 5 5 5 5 6 6 6 7 7 7 8 8 8 7 8 8 7 7 7
6 5 5 5 5 5 5 5 4 4 3 3 4 4 6 7 7 7 7 6 5 4 3 3 3 4 4 4 5 5 5 5 5 6 6 6 6 6 6 6 6 5 5 5
6 5 5 5 5 5 5 5 5 5 5 5 5 6 7 8 8 7 6 5 3 2 2 2 2 3 3 3 3 4 4 4 4 4 4 4 4 4 4 4 4 3 3 2
5 5 5 4 5 5 5 5 5 5 5 5 6 7 7 7 7 6 5 4 2 2 1 1 1 1 2 2 2 3 2 2 3 3 2 2 3 2 2 2 2 1 1 1
4 4 4 5 5 5 6 7 6 6 6 6 7 7 7 7 6 5 4 3 2 2 1 1 1 1 1 1 1 2 1 1 1 1 1 1 1 1 0 0 0 -0 -0 -0
5 5 5 5 5 5 6 7 7 6 7 7 7 7 7 6 5 4 4 3 2 1 1 0 -0 0 0 0 0 1 0 0 0 -0 -0 -1 -0 -1 -1 -1 -1 -1 -1 -1
5 5 5 5 5 5 7 8 8 8 8 8 7 7 7 5 5 5 3 2 2 1 0 -0 -0 -0 -0 -0 -0 -0 -0 -1 -1 -1 -1 -1 -1 -1 -1 -1 -1 -1 -1 -1
5 5 5 5 5 5 7 8 8 8 8 9 8 8 6 5 5 4 3 2 1 1 0 -0 -1 -1 -1 -1 -1 -1 -1 -1 -1 -1 -1 -1 -1 -1 -1 -1 -1 -1 -1 -1
5 5 5 5 5 6 8 7 7 8 9 8 8 7 6 5 4 3 3 2 1 0 -0 -0 -1 -1 -1 -1 -1 -1 -1 -1 -1 -1 -1 -1 -1 -1 -1 -1 -1 -1 -1 -1
5 5 5 5 6 7 8 8 9 9 8 8 7 7 6 5 4 3 2 1 1 1 0 -0 -1 -1 -1 -1 -1 -1 -1 -1 -1 -1 -1 -1 -1 -1 -1 -1 -1 -2 -2 -2
5 5 5 5 5 7 8 9 9 8 8 8 7 6 6 5 4 3 2 2 1 1 0 -0 -0 -1 -1 -1 -1 -1 -1 -1 -1 -1 -1 -1 -1 -1 -1 -2 -2 -2 -3 -3
6 5 5 5 6 7 9 8 8 8 8 7 7 6 5 5 4 3 3 2 2 1 1 1 0 0 -0 -0 -0 -1 -1 -1 -1 -1 -1 -1 -1 -2 -2 -2 -2 -3 -3 -4
4 5 5 6 6 6 7 8 8 7 7 6 6 5 5 4 4 3 3 2 2 2 1 1 1 1 0 -0 -0 -0 -1 -1 -1 -1 -1 -1 -2 -2 -2 -3 -3 -3 -4 -4
Wind_Speed
6 5 9 10 7 4 7 7 4 3 2 3 6 9 13 11 9 11 12 12 13 12 10 8 9 9 9 8 10 10 10 12 10 9 12 12 14 13 12 12 16 18 18 19
5 6 6 8 7 6 6 5 3 1 4 3 6 10 12 10 8 9 10 12 12 12 11 9 8 8 8 9 9 10 11 11 11 11 11 9 10 10 12 10 11 17 17 18
5 3 8 8 8 6 4 5 4 1 4 4 6 9 8 5 4 6 7 8 9 10 11 10 8 7 7 8 8 8 10 10 11 11 7 4 5 3 6 8 11 13 17 18
3 2 7 9 7 7 4 3 4 3 3 4 5 6 9 5 8 5 7 7 7 7 6 7 7 7 6 6 6 7 8 8 9 9 8 10 11 12 12 12 13 13 15 16
3 4 7 7 6 6 5 5 5 4 4 2 1 2 9 5 5 6 8 9 8 8 7 8 8 7 6 6 5 4 5 6 7 8 10 11 13 12 9 8 10 11 11 13
3 2 4 4 4 7 8 6 6 5 4 2 3 5 7 3 3 7 8 9 9 9 10 9 9 9 9 8 7 6 5 5 5 6 8 11 13 12 10 9 11 11 9 10
4 3 3 4 7 5 5 5 2 3 2 5 2 3 9 6 5 5 6 7 8 8 10 11 12 12 11 11 10 9 8 7 6 6 7 9 12 12 13 13 13 11 9 10
5 3 1 2 5 6 4 6 6 4 3 4 1 6 8 6 5 3 2 3 7 9 9 10 10 9 9 10 10 9 9 9 8 7 7 8 9 8 9 11 10 11 11 10
6 3 2 3 4 8 6 4 4 5 2 3 5 7 9 3 1 3 5 8 10 10 10 10 10 10 10 10 10 9 9 10 9 8 8 7 7 7 8 8 8 7 6 5
6 6 2 3 6 5 5 8 5 5 4 4 6 5 5 3 2 6 8 9 10 10 10 11 10 10 10 10 9 9 8 8 9 8 7 5 5 5 5 4 5 5 6 7
4 6 3 3 3 6 5 4 5 4 3 4 3 6 5 6 2 5 8 9 9 10 10 10 11 11 10 10 9 8 9 8 8 7 6 4 3 1 1 3 4 6 7 10
4 5 4 1 2 3 5 6 6 5 4 4 3 7 5 5 3 5 8 9 9 8 9 9 10 11 10 10 10 9 9 8 7 5 4 3 2 2 3 4 6 8 9 10
5 6 5 1 2 1 3 5 5 5 5 5 4 8 3 2 6 7 7 9 8 8 9 10 10 10 10 10 9 9 8 7 6 5 5 5 5 5 6 7 8 10 11 12
5 4 5 7 4 6 5 6 7 6 5 5 8 10 11 11 12 11 9 8 7 7 8 9 10 10 9 9 9 8 8 7 6 6 6 7 7 7 8 9 11 12 12 13
5 4 3 3 2 4 5 7 9 9 9 9 8 8 14 12 11 9 6 6 7 8 8 9 9 9 9 9 8 8 8 8 7 8 8 9 10 11 12 13 13 14 14 15
4 4 2 1 1 4 5 9 11 11 10 12 12 14 15 10 6 5 5 5 6 7 8 8 9 9 9 8 7 7 8 8 8 10 10 10 12 13 14 14 15 15 15 15
4 5 2 1 3 2 7 10 13 8 8 9 13 13 10 9 9 5 3 3 5 5 6 7 7 7 7 6 6 7 8 9 10 11 11 11 13 14 13 14 14 14 14 14
6 5 3 0 1 5 6 3 8 9 9 11 10 11 9 8 4 1 1 1 3 4 5 5 5 5 5 6 6 7 8 9 10 11 11 11 12 13 13 13 14 13 12 12
5 5 3 1 3 7 7 3 6 6 6 8 12 13 9 2 1 2 2 1 1 2 3 3 4 4 6 7 7 8 9 9 10 10 10 10 11 12 12 12 12 11 11 11
4 4 3 2 3 5 4 1 3 3 4 4 6 8 5 1 3 2 4 3 3 3 4 4 5 6 7 7 7 9 9 9 9 9 9 9 10 11 11 11 10 9 10 10
4 3 4 4 4 7 7 3 4 2 3 2 4 5 4 5 4 3 5 4 3 4 5 5 6 6 6 6 7 9 8 8 7 8 9 10 10 10 10 10 9 9 9 10
7 6 6 5 5 8 3 5 5 5 2 2 3 3 3 4 5 5 5 5 5 5 5 5 6 6 6 6 7 8 7 6 7 9 9 9 9 8 8 9 9 8 8 9
7 8 5 7 8 5 2 5 5 3 4 4 3 2 3 5 5 6 6 6 5 5 5 5 6 6 6 6 6 7 5 6 8 9 9 9 9 8 8 8 8 7 6 6
4 5 4 5 8 7 8 7 5 4 5 3 3 3 5 5 6 7 7 7 6 5 5 5 6 6 5 5 6 6 5 6 8 9 8 7 8 8 7 6 5 5 5 5
4 6 4 6 7 7 5 3 3 2 1 1 1 3 5 7 7 7 7 7 7 6 5 5 6 6 6 5 5 5 6 7 8 8 7 7 7 7 6 6 5 5 3 4
4 6 5 5 4 3 5 3 1 2 2 3 3 2 4 6 8 8 8 7 7 7 6 6 6 6 6 6 6 5 5 7 8 7 6 5 5 5 5 5 5 8 7 8
Wind_Direction
150 164 186 184 174 155 152 153 179 228 327 318 273 279 281 276 267 265 268 272 274 273 268 258 244 242 240 236 230 228 224 223 213 204 208 213 217 217 215 216 214 209 205 199
143 203 179 150 145 127 128 134 164 293 0 351 304 283 273 266 252 252 263 274 281 286 289 281 266 251 238 234 228 227 226 226 216 211 209 210 213 218 218 216 212 210 205 200
150 160 150 147 157 159 150 155 169 213 355 32 340 305 295 317 321 306 299 292 294 290 294 300 299 280 263 251 239 233 228 228 224 217 208 195 191 201 206 212 215 211 206 202
118 133 152 157 168 156 185 173 147 118 53 335 26 320 297 323 328 344 349 347 335 325 315 314 317 313 297 276 264 246 238 234 230 217 206 203 209 216 216 215 217 211 205 203
145 144 147 163 163 141 137 105 101 99 107 341 344 216 286 335 349 347 345 350 353 354 355 353 348 333 327 321 310 288 265 251 242 227 214 212 219 224 221 213 213 211 207 204
90 92 127 140 116 122 121 85 71 59 70 276 223 193 280 287 285 314 330 345 355 1 8 8 3 1 354 349 347 338 317 288 267 244 231 222 223 223 217 213 214 213 208 204
84 52 64 106 96 90 112 108 54 359 0 253 191 210 253 267 277 279 306 335 352 2 6 3 0 356 350 345 343 339 331 312 298 269 247 235 232 226 221 218 218 214 210 209
130 143 163 118 135 147 148 141 162 197 235 285 212 238 256 266 291 294 294 334 355 358 356 352 345 340 335 331 332 331 326 315 309 295 273 256 244 235 231 224 218 215 216 213
135 115 51 86 106 126 126 124 135 122 119 284 268 275 299 268 290 351 349 355 353 346 345 343 339 336 329 323 318 316 313 311 311 305 293 277 259 242 235 226 218 214 204 179
121 110 97 105 82 50 129 136 110 129 165 265 292 271 251 259 307 342 346 341 334 338 341 340 338 333 327 317 310 312 310 304 304 307 300 289 275 262 245 218 203 182 159 146
97 112 104 104 148 156 118 110 108 112 150 173 282 281 224 207 244 320 317 317 325 333 335 334 331 329 325 322 321 321 320 319 320 318 317 312 302 286 195 172 161 149 139 140
108 108 118 132 345 179 151 157 145 152 194 175 205 272 273 219 257 293 305 316 326 333 336 336 334 334 336 335 334 334 331 331 328 331 342 350 19 73 101 116 124 126 128 130
124 110 106 64 353 115 170 166 153 129 126 159 197 266 299 308 308 310 314 322 330 337 343 344 344 344 342 341 342 344 344 344 347 7 28 38 50 74 90 103 109 113 115 116
110 110 155 182 209 176 190 186 166 146 171 202 229 261 288 298 307 313 320 324 329 339 346 347 346 344 343 345 348 350 353 358 13 35 55 61 65 76 86 92 97 102 106 108
97 119 163 204 190 169 197 193 187 196 196 206 237 244 271 283 293 300 309 325 336 346 349 350 348 344 345 351 357 5 9 13 34 55 64 70 75 79 83 86 91 94 96 99
96 121 129 318 235 212 233 222 208 215 220 236 258 275 271 276 279 285 308 327 334 340 344 346 350 350 352 355 4 18 26 30 51 65 70 77 81 83 85 88 91 92 93 95
122 129 129 288 310 332 261 225 204 202 207 206 237 249 270 287 290 289 302 323 328 336 345 351 352 352 356 5 25 42 45 51 61 67 71 76 84 86 88 91 91 91 92 93
131 128 135 235 4 249 246 218 185 203 229 217 234 255 269 274 286 250 211 296 323 344 352 354 355 3 14 27 45 56 58 62 66 69 73 78 85 88 89 89 90 89 90 90
135 138 148 190 269 281 290 240 172 187 257 227 232 255 267 282 307 243 156 119 55 17 15 13 20 32 40 45 56 65 64 65 69 71 74 78 85 89 89 89 89 89 91 88
108 117 149 189 251 257 258 262 158 136 272 247 216 250 260 211 285 260 140 114 84 61 52 48 48 56 58 56 66 74 70 68 69 72 76 79 83 88 88 88 87 85 86 87
157 169 196 209 244 267 254 224 134 188 237 251 237 249 233 214 220 140 129 117 104 86 74 68 66 63 61 66 77 78 74 71 73 77 78 78 80 83 86 85 85 89 90 87
179 186 196 189 217 254 242 149 185 230 265 259 254 240 221 181 132 137 140 132 124 107 91 84 80 69 60 68 83 84 77 77 80 81 80 76 74 78 83 85 82 83 91 91
196 195 191 202 222 246 234 220 242 229 254 257 234 227 175 164 167 158 150 144 136 125 113 103 99 86 70 67 86 94 87 90 90 86 81 78 75 71 75 84 88 82 82 91
228 188 201 249 262 261 261 257 256 235 237 248 224 202 177 176 168 162 155 151 145 138 131 123 114 104 90 82 87 95 97 94 92 88 83 81 80 75 68 70 78 87 89 90
222 176 203 246 273 291 282 262 260 240 210 191 174 184 183 168 167 164 161 160 156 149 142 136 129 122 116 109 101 97 101 104 98 90 86 82 80 84 77 70 75 90 97 127
208 187 194 229 247 250 283 313 302 234 238 211 183 172 167 170 167 159 160 159 154 151 146 139 135 132 128 121 112 107 110 115 112 104 94 92 91 86 83 79 66 68 77 73
Height
1469 1474 1475 1478 1481 1484 1489 1493 1495 1494 1492 1492 1491 1490 1483 1480 1480 1479 1477 1476 1475 1476 1478 1480 1481 1482 1483 1484 1486 1487 1489 1491 1493 1494 1496 1497 1498 1501 1503 1506 1508 1511 1513 1515
1471 1473 1473 1476 1481 1484 1488 1492 1494 1494 1492 1492 1493 1488 1479 1474 1474 1473 1472 1472 1471 1471 1471 1472 1473 1473 1475 1476 1478 1480 1482 1484 1486 1487 1489 1490 1492 1494 1496 1499 1502 1505 1507 1509
1467 1471 1472 1476 1481 1485 1488 1492 1493 1494 1494 1495 1495 1485 1478 1473 1472 1471 1470 1469 1468 1467 1467 1466 1466 1467 1468 1469 1471 1473 1475 1478 1480 1481 1483 1484 1485 1486 1489 1491 1494 1497 1500 1502
1469 1470 1472 1476 1480 1484 1489 1489 1491 1494 1498 1502 1501 1500 1481 1477 1474 1471 1470 1468 1466 1465 1464 1464 1463 1463 1463 1464 1466 1467 1469 1471 1473 1475 1475 1476 1477 1478 1480 1483 1486 1489 1492 1495
1470 1471 1473 1477 1479 1482 1488 1490 1493 1497 1500 1505 1504 1503 1486 1480 1474 1472 1470 1468 1466 1465 1464 1463 1462 1462 1462 1462 1462 1463 1464 1465 1467 1468 1469 1470 1470 1472 1474 1476 1478 1481 1484 1486
1472 1472 1474 1476 1480 1482 1488 1493 1499 1504 1506 1507 1504 1507 1492 1482 1476 1474 1471 1469 1467 1465 1464 1463 1462 1461 1461 1460 1460 1460 1460 1461 1461 1462 1462 1463 1464 1465 1466 1468 1470 1472 1475 1477
1474 1475 1476 1477 1482 1486 1488 1496 1504 1507 1513 1509 1505 1507 1493 1478 1475 1474 1472 1469 1467 1465 1464 1462 1461 1460 1459 1458 1458 1457 1457 1457 1457 1456 1456 1457 1457 1458 1459 1460 1462 1464 1465 1468
1476 1480 1478 1478 1481 1486 1489 1493 1503 1505 1506 1508 1506 1505 1486 1476 1473 1472 1471 1469 1467 1465 1464 1462 1460 1458 1457 1455 1454 1453 1453 1452 1452 1451 1451 1451 1451 1451 1452 1453 1454 1456 1457 1460
1476 1481 1479 1479 1480 1484 1491 1496 1498 1508 1513 1513 1503 1496 1483 1473 1472 1471 1470 1468 1466 1464 1463 1461 1458 1456 1454 1452 1451 1449 1448 1447 1446 1445 1445 1445 1445 1445 1445 1446 1447 1448 1450 1452
1471 1482 1481 1481 1482 1486 1488 1495 1503 1510 1508 1501 1496 1494 1485 1474 1472 1471 1469 1467 1465 1463 1461 1458 1456 1453 1450 1448 1446 1444 1443 1442 1441 1440 1439 1438 1438 1438 1438 1439 1440 1441 1442 1445
1471 1480 1484 1483 1485 1488 1492 1496 1501 1509 1509 1509 1498 1485 1474 1473 1471 1471 1469 1467 1464 1462 1459 1456 1453 1450 1447 1444 1442 1439 1438 1436 1435 1434 1433 1433 1432 1432 1432 1432 1433 1435 1436 1439
1472 1480 1487 1487 1486 1485 1487 1492 1499 1506 1511 1513 1515 1493 1469 1470 1470 1469 1467 1465 1463 1460 1457 1454 1450 1446 1443 1440 1437 1435 1433 1431 1429 1429 1428 1427 1426 1426 1426 1427 1429 1430 1432 1435
1471 1481 1491 1492 1493 1490 1488 1490 1493 1499 1507 1516 1513 1489 1469 1469 1468 1466 1465 1463 1460 1457 1454 1451 1447 1444 1440 1437 1435 1432 1429 1427 1425 1424 1423 1422 1422 1422 1423 1424 1425 1427 1430 1432
1469 1479 1486 1488 1485 1487 1488 1489 1492 1496 1504 1508 1501 1487 1472 1468 1466 1464 1462 1460 1458 1455 1452 1449 1446 1442 1439 1436 1433 1430 1427 1425 1423 1422 1421 1420 1420 1420 1421 1422 1423 1425 1428 1430
1469 1479 1481 1481 1481 1483 1484 1485 1488 1491 1493 1496 1488 1484 1470 1466 1464 1462 1460 1458 1455 1453 1450 1448 1444 1441 1438 1435 1433 1430 1427 1425 1423 1421 1420 1419 1419 1420 1420 1421 1423 1425 1427 1430
1471 1478 1480 1481 1480 1482 1482 1481 1482 1484 1484 1483 1481 1475 1463 1461 1460 1459 1457 1455 1453 1451 1449 1446 1444 1441 1438 1436 1433 1430 1428 1425 1424 1422 1421 1421 1421 1421 1422 1423 1424 1426 1429 1431
1473 1477 1482 1484 1480 1479 1480 1471 1473 1475 1473 1474 1474 1467 1459 1459 1457 1456 1455 1453 1452 1450 1448 1445 1443 1441 1439 1436 1434 1432 1430 1428 1426 1425 1424 1423 1423 1423 1425 1426 1427 1429 1432 1435
1474 1478 1481 1481 1481 1484 1468 1460 1462 1465 1464 1464 1462 1458 1456 1455 1454 1453 1452 1451 1450 1448 1447 1445 1443 1442 1440 1438 1436 1434 1432 1431 1429 1428 1427 1427 1427 1427 1428 1430 1432 1434 1437 1440
1470 1475 1479 1479 1480 1476 1463 1458 1459 1462 1459 1456 1457 1455 1453 1453 1452 1451 1450 1449 1449 1447 1446 1445 1444 1442 1441 1439 1438 1437 1435 1434 1433 1432 1432 1432 1433 1433 1434 1435 1437 1440 1442 1444
1471 1473 1477 1477 1477 1474 1461 1455 1454 1458 1457 1452 1452 1451 1451 1452 1453 1450 1449 1448 1447 1446 1445 1445 1444 1443 1442 1441 1440 1439 1438 1438 1437 1437 1437 1437 1438 1439 1440 1441 1443 1445 1447 1449
1471 1473 1474 1474 1474 1468 1456 1453 1455 1460 1455 1450 1449 1449 1449 1449 1449 1448 1447 1447 1446 1446 1446 1445 1445 1444 1444 1443 1443 1442 1442 1441 1442 1442 1442 1442 1443 1444 1445 1446 1448 1449 1451 1452
1466 1468 1468 1470 1472 1467 1451 1452 1454 1452 1448 1447 1447 1446 1446 1445 1445 1445 1446 1446 1446 1446 1446 1446 1446 1445 1445 1445 1445 1445 1445 1445 1446 1446 1447 1447 1448 1449 1450 1451 1452 1453 1454 1454
1461 1461 1461 1462 1459 1451 1449 1449 1448 1447 1446 1445 1444 1443 1443 1443 1443 1444 1444 1445 1446 1446 1446 1447 1447 1447 1447 1448 1448 1449 1449 1450 1450 1451 1451 1452 1453 1454 1454 1455 1455 1456 1456 1456
1455 1454 1456 1456 1451 1447 1446 1445 1444 1444 1443 1442 1441 1441 1440 1440 1441 1442 1443 1444 1445 1446 1447 1448 1448 1449 1449 1450 1451 1452 1453 1454 1454 1455 1455 1456 1456 1457 1457 1457 1457 1457 1457 1457
1450 1452 1452 1451 1447 1444 1442 1442 1442 1441 1440 1439 1439 1438 1438 1439 1439 1440 1441 1443 1444 1446 1447 1448 1450 1451 1452 1453 1454 1455 1456 1457 1458 1458 1458 1459 1459 1459 1459 1459 1459 1458 1457 1457
1447 1448 1449 1447 1444 1444 1442 1441 1440 1439 1438 1437 1437 1436 1436 1437 1438 1439 1440 1442 1444 1446 1447 1449 1451 1452 1454 1455 1456 1457 1458 1459 1460 1460 1460 1460 1460 1460 1460 1460 1459 1458 1458 1457